Regional Weather Roundup
Issued by NWS Portland, ME

Home | Current Version | Previous Version | Text Only | Print | Product List | Glossary On
Versions: 1 2 3 4 5 6 7 8 9 10 11 12 13 14 15 16 17 18 19 20 21 22 23 24 25 26 27 28 29 30 31 32 33 34 35 36 37 38 39 40 41 42 43 44 45 46 47 48 49 50
000
ASUS41 KGYX 300310
RWRGYX
WEATHER ROUNDUP FOR MAINE AND NEW HAMPSHIRE
NATIONAL WEATHER SERVICE GRAY ME
1100 PM EDT WED MAR 29 2017

MEZ002-005-006-010-012-015-018-020-021-024-026-027-029-300400-
MAINE

CITY           SKY/WX    TMP DP  RH WIND       PRES   REMARKS
PORTLAND       CLEAR     37  24  59 NW13G21   30.13R
SANFORD        CLEAR     35  24  64 NW8       30.14R
BAR HARBOR     CLOUDY    35  29  78 N8G16     30.06S
WISCASSET      CLOUDY    38  27  64 VRB3      30.11S
ROCKLAND       CLOUDY    37  29  72 NW7G17    30.08S
FRYEBURG       CLOUDY    34  25  69 CALM      30.15R
LEWISTONAUBURN CLEAR     36  25  64 N10       30.12R
AUGUSTA        CLOUDY    35  24  64 N9        30.10S
WATERVILLE     CLOUDY    36  25  64 NW12      30.07S
BANGOR         CLOUDY    35  27  72 N13       30.07S
GREENVILLE       N/A     29  24  82 NW15G25   30.04R WCI  18
MILLINOCKET    CLOUDY    34  25  69 N10       30.08S
HOULTON        CLOUDY    31  28  89 N8        30.03F
PRESQUE ISLE   CLOUDY    30  27  88 NW12      30.06F
FRENCHVILLE    CLOUDY    27  22  81 N13       30.05S WCI  16
CARIBOU        CLOUDY    30  25  81 NW12      30.05S
$$

NHZ002-005-008-009-011-012-014-300400-
NEW HAMPSHIRE

CITY           SKY/WX    TMP DP  RH WIND       PRES   REMARKS
PORTSMOUTH     PTCLDY    34  24  68 NW7       30.13S
ROCHESTER      MOCLDY    36  24  62 NW10      30.13S
NASHUA         CLEAR     37  24  59 NW9       30.18R
MANCHESTER     PTCLDY    37  22  54 NW7       30.16S
CONCORD        CLOUDY    36  25  64 NW8       30.17S
LACONIA        CLOUDY    37  22  54 VRB3      30.16S
PLYMOUTH       FAIR      36  25  63 NW13      30.16S
BERLIN         CLOUDY    34  20  56 NW12G17   30.14S
WHITEFIELD     CLOUDY    34  19  54 NW8       30.17R
JAFFREY        CLEAR     34  21  59 VRB5      30.16S
KEENE          CLEAR     28  25  88 S3        30.19F
LEBANON        CLOUDY    37  25  61 N7        30.19F
MT WASHINGTON  SNOWSHWR   9   9 100 NW62G79     N/A  VSB 1/16WCI -21
$$

VTZ005-007-008-300400-
VERMONT

CITY           SKY/WX    TMP DP  RH WIND       PRES   REMARKS
ST JOHNSBURY     N/A     35  22  58 MISG      30.19R
MONTPELIER     CLOUDY    33  22  63 N15G22    30.23R
BURLINGTON     CLOUDY    37  23  56 N12       30.26S
$$

MAZ007-012-024-CTZ003-RIZ002-NYZ038-NYZ072-300400-
SOUTHERN NEW ENGLAND AND NY

CITY           SKY/WX    TMP DP  RH WIND       PRES   REMARKS
BOSTON         PTCLDY    39  24  55 NW15G23   30.16S
WORCESTER      CLEAR     33  20  58 NW12G20   30.15R
NANTUCKET      CLEAR     40  27  59 N18G26    30.10S
PROVIDENCE     PTCLDY    40  20  44 N16G25    30.17R
HARTFORD       PTCLDY    39  23  52 N7        30.22R
ALBANY         PTCLDY    37  20  50 NW12      30.25S
NEW YORK CITY  CLEAR     46  23  40 N17G26    30.23R
$$

ANZ081-ANZ082-ANZ150-NHZ014-MEZ023>029-300400-
COASTAL MARINE OBSERVATIONS

STATION/POSITION TIME  TEMP    WIND        PRES    WAVE
                       AIR SEA DIR/SP/G            HT/PER
                 (UTC) (F)     (DEG/KT/KT) (MB)    (FT/S)
MOUNT DESERT ROC 0300   36                 1017.0R
MATINICUS ROCK   0200   38     330/ 21/ 24 1017.2R
ISLE OF SHOALS   0200   38     300/ 16/ 19 1019.8R
JEFFREYS LEDGE   0206      40                N/A     5/ 8
CASHES LEDGE BUO 0150   39 40              1017.5    5/ 5
GEORGES BANK BUO 0150   39 40              1012.7    9/ 7
$$

.............KEY..............
   WCI - WIND CHILL
   TC  - TEMPERATURE IN CELSIUS
   VSB - VISIBILITY IN MILES
   HX  - HEAT INDEX
   FAIR- INDICATES FEW OR NO CLOUDS BELOW 12,000 FT, WITH NO
         SIGNIFICANT WEATHER AND/OR OBSTRUCTIONS TO VISIBILITY.






USA.gov is the U.S. government's official web portal to all federal, state and local government web resources and services.